Previsão horária em Abadeh

Hoje, 29 Setembro, Terça-feira

Tempo Temperatura Precipitação Vento Pressão Humidade
00:00 +12°C° 0 mm 3 m/s 591 mmHg 46%
01:00 +11°C° 0 mm 3 m/s 591 mmHg 50%
02:00 +10°C° 0 mm 3 m/s 590 mmHg 55%
03:00 +10°C° 0 mm 3 m/s 590 mmHg 60%
04:00 +9°C° 0 mm 2 m/s 589 mmHg 65%
05:00 +9°C° 0 mm 2 m/s 590 mmHg 65%
06:00 +9°C° 0 mm 2 m/s 590 mmHg 65%
07:00 +9°C° 0 mm 2 m/s 591 mmHg 65%
08:00 +12°C° 0 mm 2 m/s 592 mmHg 56%
09:00 +14°C° 0 mm 2 m/s 592 mmHg 48%
10:00 +16°C° 0 mm 2 m/s 593 mmHg 40%
11:00 +18°C° 0 mm 3 m/s 593 mmHg 36%
12:00 +20°C° 0 mm 3 m/s 593 mmHg 32%
13:00 +21°C° 0 mm 4 m/s 593 mmHg 28%
14:00 +21°C° 0 mm 4 m/s 593 mmHg 28%
15:00 +22°C° 0 mm 4 m/s 592 mmHg 27%
16:00 +22°C° 0 mm 5 m/s 592 mmHg 26%
17:00 +19°C° 0.1 mm 4 m/s 591 mmHg 33%
18:00 +17°C° 0.1 mm 3 m/s 591 mmHg 39%
19:00 +14°C° 0.1 mm 3 m/s 590 mmHg 46%
20:00 +12°C° 0.2 mm 3 m/s 590 mmHg 49%
21:00 +12°C° 0.2 mm 2 m/s 590 mmHg 53%
22:00 +10°C° 0.2 mm 2 m/s 590 mmHg 56%
23:00 +9°C° 0.1 mm 2 m/s 589 mmHg 57%

Amanhã, 30 Setembro, Quarta-feira

Tempo Temperatura Precipitação Vento Pressão Humidade
00:00 +10°C° 0.1 mm 1 m/s 589 mmHg 57%
01:00 +9°C° 0.1 mm 1 m/s 589 mmHg 58%
02:00 +9°C° 0 mm 1 m/s 588 mmHg 58%
03:00 +8°C° 0 mm 1 m/s 588 mmHg 59%
04:00 +7°C° 0 mm 0 m/s 588 mmHg 60%
05:00 +7°C° 0 mm 0 m/s 588 mmHg 57%
06:00 +8°C° 0 mm 0 m/s 589 mmHg 55%
07:00 +8°C° 0 mm 0 m/s 589 mmHg 53%
08:00 +11°C° 0 mm 0 m/s 590 mmHg 48%
09:00 +14°C° 0 mm 1 m/s 591 mmHg 42%
10:00 +18°C° 0 mm 1 m/s 592 mmHg 37%
11:00 +19°C° 0 mm 2 m/s 592 mmHg 32%
12:00 +21°C° 0 mm 3 m/s 592 mmHg 27%
13:00 +22°C° 0 mm 3 m/s 593 mmHg 22%
14:00 +24°C° 0 mm 3 m/s 592 mmHg 22%
15:00 +24°C° 0 mm 3 m/s 592 mmHg 21%
16:00 +23°C° 0 mm 4 m/s 591 mmHg 20%
17:00 +21°C° 0 mm 4 m/s 591 mmHg 23%
18:00 +19°C° 0 mm 4 m/s 590 mmHg 27%
19:00 +17°C° 0 mm 4 m/s 590 mmHg 30%
20:00 +15°C° 0 mm 4 m/s 590 mmHg 34%
21:00 +14°C° 0 mm 3 m/s 590 mmHg 37%
22:00 +14°C° 0 mm 2 m/s 590 mmHg 41%
23:00 +14°C° 0 mm 2 m/s 589 mmHg 45%

Depois de amanhã, 1 Outubro, Quinta-feira

Tempo Temperatura Precipitação Vento Pressão Humidade
00:00 +13°C° 0 mm 2 m/s 589 mmHg 48%
01:00 +13°C° 0 mm 2 m/s 589 mmHg 52%
02:00 +12°C° 0 mm 2 m/s 589 mmHg 54%
03:00 +10°C° 0 mm 2 m/s 588 mmHg 56%
04:00 +11°C° 0 mm 1 m/s 588 mmHg 59%
05:00 +11°C° 0 mm 1 m/s 589 mmHg 57%
06:00 +11°C° 0 mm 1 m/s 589 mmHg 55%
07:00 +12°C° 0 mm 1 m/s 590 mmHg 53%
08:00 +15°C° 0 mm 1 m/s 591 mmHg 44%
09:00 +18°C° 0 mm 1 m/s 592 mmHg 36%
10:00 +21°C° 0 mm 1 m/s 594 mmHg 27%
11:00 +22°C° 0 mm 1 m/s 594 mmHg 24%
12:00 +24°C° 0 mm 1 m/s 594 mmHg 20%
13:00 +25°C° 0 mm 1 m/s 594 mmHg 17%
14:00 +25°C° 0 mm 1 m/s 594 mmHg 16%
15:00 +26°C° 0 mm 2 m/s 594 mmHg 15%
16:00 +26°C° 0 mm 2 m/s 593 mmHg 14%
17:00 +24°C° 0 mm 2 m/s 593 mmHg 18%
18:00 +20°C° 0 mm 2 m/s 592 mmHg 22%
19:00 +19°C° 0 mm 1 m/s 591 mmHg 27%
20:00 +18°C° 0 mm 1 m/s 591 mmHg 29%
21:00 +16°C° 0 mm 1 m/s 591 mmHg 31%
22:00 +15°C° 0 mm 1 m/s 591 mmHg 34%
23:00 +14°C° 0 mm 1 m/s 591 mmHg 35%

2 Outubro, Sexta-feira

Tempo Temperatura Precipitação Vento Pressão Humidade
00:00 +13°C° 0 mm 1 m/s 591 mmHg 36%
01:00 +13°C° 0 mm 1 m/s 591 mmHg 38%
02:00 +12°C° 0 mm 1 m/s 590 mmHg 39%
03:00 +12°C° 0 mm 1 m/s 590 mmHg 40%
04:00 +11°C° 0 mm 1 m/s 590 mmHg 40%
05:00 +12°C° 0 mm 1 m/s 590 mmHg 40%
06:00 +12°C° 0 mm 1 m/s 591 mmHg 39%
07:00 +11°C° 0 mm 0 m/s 591 mmHg 38%
08:00 +15°C° 0 mm 1 m/s 593 mmHg 33%
09:00 +19°C° 0 mm 1 m/s 594 mmHg 27%
10:00 +22°C° 0 mm 1 m/s 595 mmHg 21%
11:00 +23°C° 0 mm 2 m/s 595 mmHg 19%
12:00 +25°C° 0 mm 2 m/s 595 mmHg 17%
13:00 +26°C° 0 mm 2 m/s 595 mmHg 15%
14:00 +26°C° 0 mm 3 m/s 595 mmHg 14%
15:00 +27°C° 0 mm 4 m/s 595 mmHg 14%
16:00 +27°C° 0 mm 4 m/s 595 mmHg 13%
17:00 +23°C° 0 mm 4 m/s 594 mmHg 16%
18:00 +21°C° 0 mm 3 m/s 593 mmHg 20%
19:00 +18°C° 0 mm 3 m/s 592 mmHg 23%
20:00 +17°C° 0 mm 2 m/s 592 mmHg 25%
21:00 +16°C° 0 mm 1 m/s 592 mmHg 27%
22:00 +15°C° 0 mm 1 m/s 592 mmHg 29%
23:00 +14°C° 0 mm 1 m/s 591 mmHg 30%

3 Outubro, Sábado

Tempo Temperatura Precipitação Vento Pressão Humidade
00:00 +12°C° 0 mm 0 m/s 591 mmHg 32%
01:00 +12°C° 0 mm 0 m/s 591 mmHg 33%
02:00 +12°C° 0 mm 1 m/s 591 mmHg 34%
03:00 +12°C° 0 mm 1 m/s 590 mmHg 35%
04:00 +12°C° 0 mm 1 m/s 590 mmHg 35%
05:00 +12°C° 0 mm 1 m/s 591 mmHg 35%
06:00 +12°C° 0 mm 1 m/s 591 mmHg 35%
07:00 +13°C° 0 mm 1 m/s 591 mmHg 35%
08:00 +16°C° 0 mm 1 m/s 593 mmHg 30%
09:00 +19°C° 0 mm 1 m/s 594 mmHg 25%
10:00 +22°C° 0 mm 1 m/s 595 mmHg 21%
11:00 +24°C° 0 mm 2 m/s 595 mmHg 19%
12:00 +25°C° 0 mm 2 m/s 595 mmHg 17%
13:00 +26°C° 0 mm 2 m/s 595 mmHg 15%
14:00 +26°C° 0 mm 3 m/s 595 mmHg 14%
15:00 +27°C° 0 mm 4 m/s 595 mmHg 13%
16:00 +27°C° 0 mm 4 m/s 595 mmHg 13%
17:00 +25°C° 0 mm 4 m/s 594 mmHg 16%
18:00 +21°C° 0 mm 3 m/s 593 mmHg 18%
19:00 +19°C° 0 mm 3 m/s 592 mmHg 21%
20:00 +18°C° 0 mm 2 m/s 592 mmHg 23%
21:00 +17°C° 0 mm 2 m/s 592 mmHg 25%
22:00 +15°C° 0 mm 1 m/s 592 mmHg 27%
23:00 +15°C° 0 mm 1 m/s 592 mmHg 29%

4 Outubro, Domingo

Tempo Temperatura Precipitação Vento Pressão Humidade
00:00 +14°C° 0 mm 1 m/s 591 mmHg 31%
01:00 +14°C° 0 mm 1 m/s 591 mmHg 33%
02:00 +13°C° 0 mm 1 m/s 591 mmHg 35%
03:00 +13°C° 0 mm 1 m/s 590 mmHg 38%
04:00 +12°C° 0 mm 1 m/s 590 mmHg 40%
05:00 +12°C° 0 mm 1 m/s 591 mmHg 40%
06:00 +12°C° 0 mm 1 m/s 591 mmHg 40%
07:00 +12°C° 0 mm 0 m/s 591 mmHg 39%
08:00 +16°C° 0 mm 1 m/s 593 mmHg 33%
09:00 +20°C° 0 mm 1 m/s 594 mmHg 26%
10:00 +23°C° 0 mm 1 m/s 596 mmHg 20%
11:00 +24°C° 0 mm 2 m/s 596 mmHg 17%
12:00 +26°C° 0 mm 2 m/s 596 mmHg 15%
13:00 +27°C° 0 mm 3 m/s 596 mmHg 13%
14:00 +27°C° 0 mm 3 m/s 595 mmHg 13%
15:00 +27°C° 0 mm 4 m/s 595 mmHg 14%
16:00 +27°C° 0 mm 5 m/s 595 mmHg 14%
17:00 +25°C° 0 mm 4 m/s 594 mmHg 18%
18:00 +22°C° 0 mm 4 m/s 594 mmHg 21%
19:00 +20°C° 0 mm 3 m/s 593 mmHg 24%
20:00 +19°C° 0 mm 3 m/s 593 mmHg 28%
21:00 +18°C° 0 mm 2 m/s 593 mmHg 31%
22:00 +17°C° 0 mm 2 m/s 592 mmHg 34%
23:00 +16°C° 0 mm 2 m/s 592 mmHg 34%
Mostrar mais